Weather in Novaya Bedenga

Russia / Ulyanovsk Oblast     54°29′50″N   48°21′15″E
temp.,
°C
wind,
m/s
gust,
m/s
humid.,
%
clouds,
%
prec.,
mm/h
press.,
hPa
HPBL,
m
25 july, sun
sun2501:00+13nnw34730 0.0 101590
04:00+11nw34730 0.0 101773
07:00+13nw35680 0.0 1019179
10:00+18nnw44460 0.0 1020992
13:00+20n233710 0.0 10202047
16:00+21nne243632 0.0 10202179
19:00+19wnw3650100 0.0 1021279
22:00+17w235160 0.0 102278
26 july, mon
mon2601:00+14wnw226129 0.0 102226
04:00+16w225391 0.0 102339
07:00+16wnw356185 0.0 1023182
10:00+21wnw344472 0.0 10231115
13:00+22wnw563799 0.0 10222178
16:00+23wnw463584 0.0 10212460
19:00+19nw235313 0.0 102296
22:00+17wsw3362100 0.0 102128
27 july, tue
tue2701:00+18w365251 0.0 1021142
04:00+17w4115916 0.0 1020273
07:00+17w596023 0.0 1020250
10:00+21wnw585281 0.0 1019532
13:00+25wnw6839100 0.0 10172566
16:00+25nw7939100 0.0 10162525
19:00+22nnw48521 0.0 1017999
22:00+20nw485447 0.0 1017256
28 july, wed
wed2801:00+16wnw346185 0.0 101857
04:00+14wnw336558 0.0 101745
07:00+17nw245771 0.0 1018132
10:00+21n01445 0.0 1017550
13:00+24se144012 0.0 10161990
16:00+20ene335585 0.0 1015114
19:00+22se235293 0.0 101485
22:00+19wsw346814 0.0 101365
29 july, thu
thu2901:00+18sw377371 0.1 1012124
04:00+18sw4975100 0.2 1011201
07:00+18wsw41084100 1.6 1011379
10:00+19nnw1384100 2.6 1011296
13:00+19s61184100 1.3 1009800
16:00+17ssw61292100 2.5 1008638
19:00+18sw4988100 0.6 1007527
22:00+17ssw349528 0.8 100573